Content
SEND FEEDBACK

Daily
Averages
Monthly
Summary
United States of America

CHICAGO, ILLINOIS


Home > North America > United States > Illinois
Elevation: 674 feet     Latitude: 41 59N     Longitude: 087 54W

WEATHER
 
SELECT A DAY
Number of Records: 194,883;   Date Range: 7/8/95 - 7/29/14
 
SHARE

PRINT THIS DATA

[ ← Previous Day ]
WEATHER ALMANAC - JUNE 24, 2013
[ Next Day → ]
[ °C ]   °F
We're sorry. There is no daily almanac available for Chicago, Illinois on June 24, 2013.
WEATHER BY HOUR - JUNE 24, 2013
[ °C ]   °F
Local TimeTemperatureDewpointHumidityBarometerVisibilityWind DirectionWind SpeedGust SpeedPrecipitationEventsConditions
1:52 AM75.0 °F69.1 °F82 %29.98 in10.0 miSouth (190°)6.9 mphClear
2:52 AM73.9 °F69.1 °F85 %29.98 in8.0 miSSW (200°)6.9 mphClear
3:52 AM73.0 °F69.1 °F87 %29.99 in7.0 miSSW (200°)6.9 mphClear
4:38 AM71.6 °F69.8 °F94 %30.00 in6.0 miSouth (190°)10.4 mphPartly Cloudy
4:52 AM72.0 °F69.1 °F91 %29.98 in5.0 miSouth (190°)8.1 mphClear
5:01 AM71.6 °F69.8 °F94 %30.01 in5.0 miSSW (200°)8.1 mphPartly Cloudy
5:52 AM73.0 °F69.1 °F87 %30.02 in5.0 miSW (220°)5.8 mphMostly Cloudy
6:52 AM73.0 °F66.9 °F81 %30.02 in9.0 miSW (230°)6.9 mphClear
7:52 AM73.9 °F66.0 °F76 %30.04 in10.0 miSW (230°)12.7 mphMostly Cloudy
8:52 AM73.9 °F64.9 °F73 %30.06 in10.0 miWSW (250°)6.9 mphOvercast
9:52 AM73.0 °F66.0 °F79 %30.05 in10.0 miWSW (250°)9.2 mphMostly Cloudy
10:52 AM73.9 °F64.9 °F73 %30.04 in10.0 miSW (220°)8.1 mph16.1 mphOvercast
11:52 AM75.0 °F63.0 °F66 %29.97 in10.0 miSSE (160°)9.2 mphClear
12:52 PM80.1 °F64.0 °F58 %29.98 in10.0 miSW (230°)4.6 mphClear
1:52 PM82.0 °F64.9 °F56 %29.98 in10.0 miSW (220°)8.1 mphClear
2:52 PM84.9 °F64.0 °F49 %29.96 in10.0 miSSW (200°)12.7 mphPartly Cloudy
3:52 PM86.0 °F64.9 °F49 %29.95 in10.0 miSW (230°)8.1 mph20.7 mphPartly Cloudy
4:52 PM84.9 °F66.0 °F53 %29.95 in10.0 miSSW (210°)6.9 mphPartly Cloudy
5:52 PM84.0 °F68.0 °F58 %29.93 in10.0 miSSW (200°)13.8 mphScattered Clouds
6:01 PM84.2 °F68.0 °F58 %29.98 in6.0 miWSW (250°)29.9 mph43.7 mph0.01 inThunderstormHaze
6:03 PM80.6 °F66.2 °F61 %29.99 in1.5 miSW (230°)21.9 mph43.7 mph0.09 inRain-ThunderstormLight Thunderstorms and Rain
6:05 PM75.2 °F64.4 °F69 %29.97 in0.8 miWSW (240°)18.4 mph43.7 mph0.17 inRain-ThunderstormHeavy Thunderstorms and Rain
6:14 PM71.6 °F64.4 °F78 %29.95 in1.2 miSSW (200°)13.8 mph25.3 mph0.23 inRain-ThunderstormLight Thunderstorms and Rain
6:17 PM71.6 °F64.4 °F78 %29.95 in3.0 miSouth (190°)11.5 mph18.4 mph0.23 inRain-ThunderstormLight Thunderstorms and Rain
6:42 PM69.8 °F64.4 °F83 %29.93 in10.0 miSouth (180°)11.5 mph0.24 inRain-ThunderstormLight Thunderstorms and Rain
6:52 PM70.0 °F64.9 °F84 %29.91 in10.0 miSSW (210°)6.9 mph0.24 inRain-ThunderstormLight Thunderstorms and Rain
7:03 PM69.8 °F64.4 °F83 %29.91 in8.0 miWSW (240°)9.2 mph17.3 mph0.01 inRainLight Rain
7:52 PM69.1 °F64.9 °F87 %29.88 in10.0 miSW (230°)9.2 mph0.02 inClear
8:52 PM69.1 °F64.9 °F87 %29.90 in10.0 miWSW (250°)4.6 mphClear
9:52 PM69.1 °F64.9 °F87 %29.94 in10.0 miSW (220°)3.5 mphClear
10:52 PM69.1 °F64.0 °F84 %29.95 in10.0 miSW (220°)6.9 mphClear
11:52 PM69.1 °F64.0 °F84 %29.95 in10.0 miSSW (200°)4.6 mphPartly Cloudy
Hourly data recorded from KPWK, located miles away from Chicago, Illinois







STORIES FROM OUR PARTNERS